User: anonymous
Location: Caltech
(34.1382°N, 118.1253°W)
Time: 21:37:11
(UTC-07:00)
Language:

BREEZE M DEB (TANK) - Orbit

View from above orbital plane
View from above orbital plane
View from above satellite
View from above satellite

Ground track
Ground track

The orbit data is extracted from the following two-line orbital elements,

1 33437U 08057B   14243.73188624  .00001245  00000-0  40931-3 0   806
2 33437 049.5790 035.8230 5007866 056.5771 008.2278 05.55871217116848
Epoch (UTC): 31 August 2014 17:33:54
Eccentricity: 0.5007866
inclination: 49.5790°
perigee height: 342 km
apogee height: 13824 km
right ascension of ascending node: 35.8230°
argument of perigee: 56.5771°
revolutions per day: 5.55871217
mean anomaly at epoch: 8.2278°
orbit number at epoch: 11684

The dashed part of the orbit path shows where the satellite is in the earth's shadow,  

DLR